RAM714T GMMN-LFMN

Flight info

Callsign RAM714T
Flight time N/A
Altitude 38000
Route SADIC UR975 FES UG850 BERUM DCT GONZA N860 BEGOX DCT LASPO DCT SOPET DCT DIKUT DCT TORDU DCT LOTOS DCT EBROX DCT PEXOT DCT RODRA DCT BCN DCT FEVIK DCT DALIN DCT PIVUS DCT DIBER DCT SOSUR DCT SOFFY UM976 MRM DCT ABLAK
Aircraft E190/M-SDE3GILORVW/S

Departure

Time 2026-04-29 16:49
Airport Mohammed V International Airport (GMMN)

Arrival

Time N/A
Airport Nice-Côte d'Azur Airport (LFMN)
Time Latitude Longitude Altitude Speed Heading
2026-04-29 16:40 33.37510 -7.58432 652 ft 0 kts 126°
2026-04-29 16:41 33.37499 -7.58420 652 ft 6 kts 137°
2026-04-29 16:41 33.37450 -7.58385 653 ft 10 kts 163°
2026-04-29 16:41 33.37353 -7.58351 652 ft 18 kts 163°
2026-04-29 16:41 33.37268 -7.58322 654 ft 12 kts 164°
2026-04-29 16:42 33.37183 -7.58293 652 ft 13 kts 163°
2026-04-29 16:42 33.37092 -7.58261 652 ft 14 kts 163°
2026-04-29 16:42 33.36995 -7.58235 652 ft 15 kts 169°
2026-04-29 16:42 33.36942 -7.58269 652 ft 6 kts 240°
2026-04-29 16:43 33.36926 -7.58319 652 ft 7 kts 251°
2026-04-29 16:43 33.36907 -7.58389 653 ft 10 kts 252°
2026-04-29 16:43 33.36867 -7.58453 652 ft 10 kts 206°
2026-04-29 16:43 33.36814 -7.58450 652 ft 8 kts 165°
2026-04-29 16:44 33.36755 -7.58431 653 ft 10 kts 165°
2026-04-29 16:44 33.36675 -7.58404 651 ft 13 kts 165°
2026-04-29 16:44 33.36578 -7.58373 651 ft 16 kts 165°
2026-04-29 16:44 33.36465 -7.58332 652 ft 17 kts 160°
2026-04-29 16:45 33.36342 -7.58289 651 ft 20 kts 164°
2026-04-29 16:45 33.36204 -7.58241 651 ft 22 kts 163°
2026-04-29 16:45 33.36051 -7.58189 651 ft 24 kts 164°
2026-04-29 16:45 33.35884 -7.58132 653 ft 25 kts 166°
2026-04-29 16:46 33.35754 -7.58092 651 ft 19 kts 165°
2026-04-29 16:46 33.35622 -7.58045 651 ft 20 kts 162°
2026-04-29 16:46 33.35486 -7.57995 654 ft 21 kts 165°
2026-04-29 16:46 33.35343 -7.57950 651 ft 21 kts 171°
2026-04-29 16:47 33.35255 -7.58021 651 ft 15 kts 243°
2026-04-29 16:47 33.35225 -7.58124 653 ft 11 kts 253°
2026-04-29 16:47 33.35211 -7.58212 654 ft 10 kts 269°
2026-04-29 16:47 33.35228 -7.58251 653 ft 3 kts 314°
2026-04-29 16:48 33.35245 -7.58263 653 ft 4 kts 329°
2026-04-29 16:48 33.35271 -7.58279 652 ft 5 kts 335°
2026-04-29 16:48 33.35454 -7.58345 647 ft 56 kts 344°
2026-04-29 16:48 33.36001 -7.58530 644 ft 108 kts 344°
2026-04-29 16:49 33.36865 -7.58772 684 ft 142 kts 348°
2026-04-29 16:49 33.37872 -7.59061 917 ft 163 kts 346°
2026-04-29 16:49 33.38940 -7.59396 1749 ft 149 kts 344°
2026-04-29 16:49 33.39995 -7.59684 2104 ft 171 kts 353°
2026-04-29 16:50 33.41330 -7.59552 2063 ft 215 kts 10°
2026-04-29 16:50 33.42925 -7.59079 1754 ft 252 kts 13°
2026-04-29 16:50 33.44589 -7.58648 1842 ft 230 kts 11°
2026-04-29 16:50 33.46087 -7.58300 1890 ft 213 kts
2026-04-29 16:51 33.47442 -7.57739 1762 ft 207 kts 28°
2026-04-29 16:51 33.48529 -7.56625 1699 ft 209 kts 49°
2026-04-29 16:51 33.49208 -7.55120 1719 ft 205 kts 69°
2026-04-29 16:51 33.49436 -7.53358 1744 ft 218 kts 88°
2026-04-29 16:52 33.49178 -7.51592 1752 ft 217 kts 107°
2026-04-29 16:52 33.48610 -7.49911 1513 ft 215 kts 104°
2026-04-29 16:52 33.48379 -7.48221 1550 ft 199 kts 86°
2026-04-29 16:52 33.48505 -7.46600 1306 ft 195 kts 72°
2026-04-29 16:53 33.48884 -7.45096 1217 ft 175 kts 64°
2026-04-29 16:53 33.49450 -7.43895 1027 ft 167 kts 47°
2026-04-29 16:53 33.50009 -7.43272 912 ft 158 kts 26°
2026-04-29 16:53 33.51380 -7.42863 581 ft 153 kts 358°
2026-04-29 16:54 33.51797 -7.42917 475 ft 0 kts 149°